KINEIS-1B

Last updated on Thu Sep 24 2026 00:03:12 GMT+0000 (Coordinated Universal Time)

1 60079U 24114A 26266.57922244 .00000425 00000+0 62083-4 0 9994 2 60079 97.9802 290.2899 0003626 121.5469 238.6097 14.80753381121967
UTC large
Height (km)
Speed (km/s)
/
Latitude / Longitude
Inclination (degrees)
Orbital Period (minutes)
Azimuth
Elevation
Range (km)
Doppler Factor

Next 0 passes for location: London (51.5072 / 0.1276)

No passes found over London.
KINEIS-1B